Probability
0 0 0 0 0 0 0 0 0 0 0 0 0 0 0 0 0 0 0 0 0 0 0 0 0 0 0 0 0 0 0 0 0 0 0 0 0 0 0 0 0 0 0
0 0 0 0 0 0 0 0 0 0 0 0 0 0 0 0 0 0 0 0 0 0 0 0 0 0 0 0 0 0 0 0 0 0 0 0 0 0 0 0 0 0 0
0 0 0 0 0 0 0 0 0 0 0 0 0 0 0 0 0 0 0 0 0 0 0 0 0 0 0 0 0 0 0 0 0 0 0 0 0 0 0 0 0 0 0
0 0 0 0 0 0 0 0 0 0 0 0 0 0 0 0 0 0 0 0 0 0 0 0 0 0 0 0 0 0 0 0 0 0 0 0 0 0 0 0 0 0 0
0 0 0 0 0 0 0 0 0 0 0 0 0 0 0 0 0 0 0 0 0 0 0 0 0 0 0 0 0 0 0 0 0 0 0 0 0 0 0 0 0 0 0
0 0 0 0 0 0 0 0 0 0 0 0 0 0 0 0 0 0 0 0 0 0 0 0 0 0 0 0 0 0 0 0 0 0 0 0 0 0 0 0 0 0 0
0 0 0 0 0 0 0 0 0 0 0 0 0 0 0 0 0 0 0 0 0 0 0 0 0 0 0 0 0 0 0 0 0 0 0 0 0 0 0 0 0 0 0
0 0 0 0 0 0 0 0 0 0 0 0 0 0 0 0 0 0 0 0 0 0 0 0 0 0 0 0 0 0 0 0 0 0 0 0 0 0 0 0 0 0 0
0 0 0 0 0 0 0 0 0 0 0 0 0 0 0 0 0 0 0 0 0 0 0 0 0 0 0 0 0 0 0 0 0 0 0 0 0 0 0 0 0 0 0
0 0 0 0 0 0 0 0 0 0 0 0 0 0 0 0 0 0 0 0 0 0 0 0 0 0 0 0 0 0 0 0 0 0 0 0 0 0 0 0 0 0 0
0 0 0 0 0 0 0 0 0 0 0 0 0 0 0 0 0 0 0 0 0 0 0 0 0 0 0 0 0 0 0 0 0 0 0 0 0 0 0 0 0 0 0
0 0 0 0 0 0 0 0 0 0 0 0 0 0 0 0 0 0 0 0 0 0 0 0 0 0 0 0 0 0 0 0 0 0 0 0 0 0 0 0 0 0 0
0 0 0 0 0 0 0 0 0 0 0 0 0 0 0 0 0 0 0 0 0 0 0 0 0 0 0 0 0 0 0 0 0 0 0 0 0 0 0 0 0 0 0
0 0 0 0 0 0 0 0 0 0 0 0 0 0 0 0 0 0 0 0 0 0 0 0 0 0 0 0 0 0 0 0 0 0 0 0 0 0 0 0 0 0 0
0 0 0 0 0 0 0 0 0 0 0 0 0 0 0 0 0 0 0 0 0 0 0 0 0 0 0 0 0 0 0 0 0 0 0 0 0 0 0 0 0 0 0
0 0 0 0 0 0 0 0 0 0 0 0 0 0 0 0 0 0 0 0 0 0 0 0 0 0 0 0 0 0 0 0 0 0 0 0 0 0 0 0 0 0 0
0 0 0 0 0 0 0 0 0 0 0 0 0 0 0 0 0 0 0 0 0 0 0 0 0 0 0 0 0 0 0 0 0 0 0 0 0 0 0 0 0 0 0
0 0 0 0 0 0 0 0 0 0 0 0 0 0 0 0 0 0 0 0 0 0 0 0 0 0 0 0 0 0 0 0 0 0 0 0 0 0 0 0 0 0 0
0 0 0 0 0 0 0 0 0 0 0 0 0 0 0 0 0 0 0 0 0 0 0 0 0 0 0 0 0 0 0 0 0 0 0 0 0 0 0 0 0 0 0
0 0 0 0 0 0 0 0 0 0 0 0 0 0 0 0 0 0 0 0 0 0 0 0 0 0 0 0 0 0 0 0 0 0 0 0 0 0 0 0 0 0 0
0 0 0 0 0 0 0 0 0 0 0 0 0 0 0 0 0 0 0 0 0 0 0 0 0 0 0 0 0 0 0 0 0 0 0 0 0 0 0 0 0 0 0
0 0 0 0 0 0 0 0 0 0 0 0 0 0 0 0 0 0 0 0 0 0 0 0 0 0 0 0 0 0 0 0 0 0 0 0 0 0 0 0 0 0 0
0 0 0 0 0 0 0 0 0 0 0 0 0 0 0 0 0 0 0 0 0 0 0 0 0 0 0 0 0 0 0 0 0 0 0 0 0 0 0 0 0 0 0
0 0 0 0 0 0 0 0 0 0 0 0 0 0 0 0 0 0 0 0 0 0 0 0 0 0 0 0 0 0 0 0 0 0 0 0 0 0 0 0 0 0 0
0 0 0 0 0 0 0 0 0 0 0 0 0 0 0 0 0 0 0 0 0 0 0 0 0 0 0 0 0 0 0 0 0 0 0 0 0 0 0 0 0 0 0
0 0 0 0 0 0 0 0 0 0 0 0 0 0 0 0 0 0 0 0 0 0 0 0 0 0 0 0 0 0 0 0 0 0 0 0 0 0 0 0 0 0 0
Height
5722 5724 5726 5728 5731 5734 5736 5739 5741 5744 5746 5749 5753 5755 5757 5759 5762 5764 5766 5766 5767 5769 5769 5770 5771 5771 5772 5771 5771 5771 5771 5771 5772 5771 5771 5770 5770 5769 5768 5767 5766 5765 5763
5718 5719 5721 5724 5726 5728 5730 5732 5734 5737 5739 5742 5745 5748 5749 5751 5754 5755 5757 5758 5759 5760 5761 5761 5762 5762 5763 5762 5762 5762 5762 5762 5762 5762 5761 5761 5762 5760 5759 5758 5757 5755 5754
5713 5714 5716 5718 5720 5722 5724 5726 5728 5731 5733 5735 5738 5740 5742 5743 5746 5748 5749 5750 5750 5751 5752 5753 5753 5754 5754 5753 5753 5753 5754 5753 5753 5752 5752 5752 5752 5751 5750 5748 5747 5746 5744
5708 5709 5711 5713 5715 5717 5719 5721 5723 5725 5726 5729 5731 5732 5734 5736 5737 5739 5740 5741 5741 5742 5743 5744 5744 5744 5745 5744 5744 5744 5744 5744 5743 5743 5742 5741 5741 5741 5741 5739 5737 5736 5734
5703 5705 5706 5708 5710 5712 5714 5715 5717 5719 5720 5722 5723 5725 5726 5727 5729 5730 5731 5732 5733 5733 5734 5734 5734 5735 5735 5735 5735 5735 5734 5734 5733 5732 5732 5731 5730 5729 5729 5729 5727 5725 5723
5698 5700 5701 5703 5705 5706 5708 5709 5711 5713 5714 5715 5716 5717 5718 5719 5720 5721 5722 5723 5723 5724 5724 5724 5724 5724 5725 5725 5725 5724 5724 5723 5723 5721 5721 5720 5719 5718 5717 5716 5716 5714 5713
5693 5695 5696 5698 5699 5701 5702 5703 5705 5706 5707 5707 5709 5709 5710 5711 5712 5712 5713 5714 5714 5714 5714 5714 5714 5714 5714 5714 5714 5714 5713 5712 5712 5711 5710 5709 5708 5706 5705 5704 5703 5702 5701
5688 5690 5691 5692 5693 5695 5696 5697 5698 5699 5699 5700 5701 5701 5702 5702 5703 5703 5704 5704 5704 5704 5704 5704 5704 5704 5704 5703 5703 5703 5702 5701 5700 5699 5698 5697 5696 5695 5693 5692 5690 5690 5689
5683 5684 5685 5687 5688 5688 5689 5690 5691 5691 5692 5692 5693 5693 5693 5694 5693 5693 5693 5694 5694 5694 5693 5693 5693 5693 5693 5692 5692 5691 5691 5690 5688 5687 5686 5685 5684 5682 5681 5679 5677 5676 5675
5678 5679 5679 5680 5681 5682 5682 5683 5683 5684 5684 5684 5684 5685 5685 5685 5684 5684 5684 5684 5683 5683 5683 5683 5682 5682 5681 5681 5680 5679 5678 5677 5676 5675 5674 5672 5671 5670 5668 5666 5664 5663 5662
5673 5673 5673 5674 5674 5675 5675 5676 5676 5676 5676 5676 5676 5676 5676 5675 5675 5675 5674 5674 5673 5673 5673 5672 5671 5671 5670 5669 5668 5667 5666 5664 5663 5661 5660 5659 5658 5656 5655 5653 5651 5650 5648
5666 5666 5666 5666 5667 5667 5667 5668 5667 5667 5667 5667 5667 5666 5666 5666 5665 5665 5664 5663 5663 5662 5661 5661 5660 5659 5658 5657 5655 5654 5653 5652 5650 5648 5647 5646 5644 5643 5641 5639 5638 5636 5634
5659 5659 5659 5658 5658 5659 5659 5659 5658 5658 5658 5658 5657 5657 5656 5655 5655 5654 5654 5653 5652 5651 5650 5649 5648 5647 5646 5644 5643 5641 5640 5638 5637 5635 5634 5632 5631 5629 5627 5626 5624 5622 5620
5651 5651 5650 5650 5650 5650 5649 5649 5649 5649 5648 5648 5647 5647 5646 5645 5644 5643 5643 5642 5641 5640 5639 5637 5636 5635 5633 5631 5630 5628 5627 5625 5623 5622 5620 5618 5617 5615 5613 5612 5610 5608 5606
5642 5642 5641 5641 5641 5640 5640 5640 5639 5639 5638 5638 5637 5636 5635 5634 5633 5632 5631 5630 5629 5628 5627 5625 5624 5622 5620 5619 5617 5615 5613 5612 5610 5608 5606 5605 5603 5601 5599 5598 5596 5594 5592
5633 5633 5632 5632 5631 5631 5630 5630 5629 5628 5628 5627 5626 5625 5624 5623 5622 5621 5620 5619 5617 5616 5614 5613 5611 5609 5607 5605 5603 5602 5600 5598 5597 5595 5593 5591 5589 5588 5586 5584 5582 5580 5578
5624 5623 5623 5622 5621 5621 5620 5619 5618 5618 5617 5616 5615 5614 5613 5612 5610 5609 5608 5607 5605 5603 5602 5600 5598 5597 5594 5592 5590 5589 5587 5585 5583 5581 5579 5578 5576 5574 5572 5570 5568 5566 5564
5614 5613 5612 5612 5611 5610 5609 5608 5608 5607 5606 5605 5604 5603 5602 5600 5599 5597 5596 5594 5593 5591 5590 5588 5586 5584 5582 5580 5578 5576 5574 5572 5570 5568 5566 5565 5563 5561 5560 5558 5556 5553 5551
5604 5603 5602 5601 5600 5599 5598 5597 5597 5596 5595 5594 5592 5591 5590 5589 5587 5585 5584 5582 5580 5579 5577 5575 5573 5571 5569 5567 5565 5563 5561 5560 5558 5556 5554 5552 5550 5549 5547 5546 5544 5542 5539
5593 5592 5591 5590 5589 5588 5587 5586 5585 5584 5583 5582 5581 5580 5578 5577 5575 5573 5572 5570 5568 5567 5565 5563 5561 5559 5557 5555 5553 5550 5549 5547 5546 5544 5542 5540 5538 5536 5534 5533 5531 5529 5527
5582 5581 5580 5579 5577 5576 5575 5574 5573 5572 5571 5570 5569 5568 5566 5564 5563 5561 5560 5558 5556 5555 5553 5552 5550 5548 5545 5543 5540 5538 5536 5535 5533 5531 5530 5528 5525 5523 5522 5520 5519 5517 5515
5571 5570 5569 5568 5566 5564 5563 5562 5561 5560 5559 5558 5557 5556 5554 5553 5551 5549 5548 5546 5544 5543 5542 5540 5538 5536 5533 5531 5528 5527 5525 5523 5521 5520 5518 5515 5513 5511 5510 5508 5506 5504 5502
5560 5558 5557 5556 5555 5553 5552 5551 5549 5548 5547 5546 5545 5543 5542 5541 5539 5537 5536 5534 5533 5531 5529 5527 5526 5524 5522 5520 5517 5515 5514 5511 5510 5508 5506 5504 5502 5500 5498 5496 5494 5492 5491
5549 5547 5546 5544 5543 5541 5540 5539 5537 5536 5535 5534 5532 5531 5529 5528 5527 5525 5524 5522 5521 5519 5517 5515 5514 5512 5511 5508 5506 5504 5502 5500 5499 5497 5494 5492 5490 5488 5486 5484 5483 5481 5479
5537 5535 5534 5533 5531 5529 5528 5527 5525 5523 5522 5521 5520 5519 5517 5516 5514 5513 5512 5510 5509 5507 5505 5504 5502 5500 5499 5497 5495 5493 5491 5489 5487 5485 5483 5482 5479 5477 5476 5474 5472 5470 5468
5524 5523 5522 5521 5520 5518 5517 5515 5513 5511 5510 5509 5507 5506 5505 5503 5502 5501 5500 5498 5496 5495 5493 5491 5490 5488 5487 5485 5483 5481 5480 5478 5476 5474 5473 5471 5469 5467 5465 5464 5462 5460 5458
Wind_Speed
27 28 30 30 30 31 32 33 35 35 36 37 37 37 37 37 36 37 37 37 37 38 38 38 36 36 36 37 36 37 36 36 36 36 37 36 36 36 37 37 38 38 38
27 29 30 29 31 31 31 32 34 35 35 36 36 37 36 36 37 37 38 38 38 38 38 38 37 37 38 36 36 36 37 37 37 37 37 37 37 38 38 39 39 39 39
26 28 29 29 30 30 30 31 32 34 35 36 36 36 36 37 37 38 39 39 38 39 40 39 39 39 39 38 37 37 38 38 38 39 39 39 38 39 39 40 40 40 40
25 27 28 29 30 30 31 31 31 32 34 35 36 36 36 37 38 39 39 40 39 39 40 40 40 40 40 39 38 38 39 39 40 41 41 41 41 40 40 40 41 41 41
24 25 27 28 29 30 31 31 31 32 33 34 35 35 37 38 38 38 37 39 40 40 40 40 41 40 40 40 39 39 40 40 40 41 42 42 43 43 42 42 42 43 43
23 24 26 28 28 29 30 31 31 33 34 34 35 35 36 37 37 38 38 39 40 40 40 41 41 41 41 41 41 41 41 41 42 42 42 43 44 44 44 44 44 44 44
23 25 25 27 28 28 29 30 31 32 33 34 35 36 36 37 37 38 39 39 39 40 41 42 42 43 43 42 43 43 43 43 43 44 45 45 45 45 45 46 46 45 45
23 23 25 26 27 28 28 29 30 31 32 34 35 35 37 37 38 39 39 40 39 40 41 42 42 43 43 43 44 45 45 45 45 46 46 47 47 46 47 47 48 47 47
23 23 24 25 26 28 29 30 31 31 32 33 34 35 36 37 37 38 39 39 39 39 40 41 42 42 43 44 45 45 46 46 46 47 47 47 47 47 48 48 48 48 48
24 25 26 26 27 28 29 30 31 32 33 34 35 36 37 37 38 38 38 38 39 40 41 41 42 43 43 44 45 46 46 47 47 48 48 48 48 48 48 48 48 48 49
26 27 27 27 28 29 30 31 32 33 33 34 35 36 37 37 38 39 39 40 40 41 41 41 42 43 44 44 45 46 47 47 48 49 49 49 49 49 49 49 48 49 49
28 29 29 29 30 30 31 32 33 34 34 35 35 36 37 38 39 40 41 41 42 43 43 44 43 44 44 45 46 46 47 48 49 49 49 50 50 50 50 49 49 49 50
29 30 31 31 32 32 33 33 33 34 34 35 36 37 38 39 40 41 42 42 42 43 44 45 45 45 45 46 47 47 48 49 49 50 50 50 50 50 50 50 50 50 50
30 31 31 32 33 33 34 34 34 34 35 36 37 37 38 39 40 41 42 42 42 43 44 45 45 45 46 46 46 47 47 48 49 50 50 49 48 49 49 50 50 50 50
31 32 32 33 33 34 35 35 35 35 36 36 37 38 39 39 40 41 41 42 42 43 44 45 46 46 46 47 47 47 47 48 48 49 48 49 49 49 48 49 49 49 48
32 33 33 32 33 34 34 35 36 36 36 37 37 39 39 40 41 41 42 43 43 44 44 44 45 46 46 46 47 47 47 47 47 47 48 48 48 48 47 47 47 47 47
32 33 33 33 34 34 35 36 36 37 37 38 38 39 40 40 41 42 42 43 43 43 44 44 44 45 46 46 46 46 46 46 46 46 46 46 46 45 45 45 45 46 46
34 34 34 35 36 36 36 37 37 37 38 39 39 39 40 41 41 41 42 42 43 44 44 44 44 45 45 45 46 46 45 45 45 44 44 44 44 45 44 44 44 44 44
35 35 36 36 37 37 37 38 38 38 39 40 40 41 41 41 41 42 42 42 42 43 44 44 44 44 44 45 45 44 44 43 43 43 43 44 43 43 43 43 43 43 43
36 36 37 37 38 38 39 39 39 40 40 41 41 41 41 42 42 42 42 42 42 42 42 42 42 43 43 43 43 43 43 42 41 42 42 42 42 42 43 43 42 42 42
36 36 37 38 38 39 40 40 40 41 42 42 42 41 41 41 41 41 42 42 41 41 41 41 41 41 42 43 43 42 41 41 41 42 42 41 41 41 42 42 42 42 42
37 37 37 38 38 39 40 40 41 41 42 41 41 41 41 41 41 41 41 41 41 41 41 41 41 41 41 41 41 41 41 40 40 40 40 40 40 41 41 42 42 41 41
38 38 38 38 39 39 39 40 40 41 40 40 40 40 40 40 41 41 40 40 40 41 41 41 41 41 40 40 40 40 39 39 39 39 39 39 39 40 41 41 41 40 40
39 39 39 39 39 40 40 40 40 41 41 41 40 40 40 41 40 40 41 41 41 40 41 41 41 40 40 40 39 39 39 39 38 38 37 38 38 38 38 39 39 38 38
40 40 39 39 39 39 39 40 41 41 41 41 41 41 40 40 40 40 40 40 40 40 40 41 40 40 39 39 39 38 38 37 37 37 37 37 37 37 37 37 37 36 36
41 41 40 39 39 39 39 40 41 41 41 40 40 40 40 40 40 40 39 39 40 40 40 40 40 40 39 38 38 37 37 36 36 36 35 35 35 34 34 34 34 34 34
Wind_Direction
245 243 241 241 242 243 244 244 246 245 245 247 248 249 251 252 254 255 256 260 260 262 264 266 267 268 269 271 270 269 269 270 272 273 274 275 276 278 278 279 280 281 281
247 246 244 244 244 244 245 245 247 247 248 247 248 251 251 253 254 255 257 260 262 263 266 266 267 268 269 271 272 269 269 270 271 273 274 274 276 277 278 279 280 280 281
250 247 245 247 246 246 248 248 248 249 248 248 250 252 253 254 255 256 259 261 263 264 265 265 267 268 269 270 271 271 271 272 272 272 274 274 275 276 278 279 279 280 281
254 252 251 250 248 248 250 251 250 250 250 249 251 253 254 255 256 258 261 262 264 266 265 266 266 267 268 269 271 272 272 273 273 273 274 275 277 277 278 278 279 279 281
256 254 253 251 250 251 251 252 252 252 253 253 254 256 258 258 259 261 264 265 266 267 267 267 267 268 268 269 271 272 273 274 274 273 274 276 277 279 279 278 279 280 280
256 254 253 251 251 253 253 254 255 256 256 257 258 259 260 261 262 264 266 268 268 269 269 269 269 269 269 269 270 272 273 274 274 274 275 276 277 279 279 279 279 280 281
258 256 255 254 254 255 255 254 257 257 257 259 260 261 263 264 265 266 267 268 270 271 271 272 271 271 271 271 271 272 274 275 275 275 276 277 278 279 280 280 280 280 281
262 258 255 256 256 256 258 258 259 261 261 261 262 264 265 267 268 268 268 269 271 272 272 272 272 273 273 273 274 274 275 276 276 277 277 277 278 280 281 281 281 280 280
265 262 260 259 260 260 261 261 262 264 265 266 266 266 269 269 270 270 271 271 273 273 273 272 273 273 273 274 274 274 275 276 276 277 277 278 279 280 282 282 282 282 281
267 265 264 264 263 263 264 265 265 266 267 268 269 270 271 271 271 273 273 272 274 275 275 274 275 274 274 275 276 275 275 276 277 277 277 278 279 281 282 282 282 282 282
269 268 266 266 266 265 265 266 267 267 268 269 270 271 272 273 273 275 275 275 276 276 276 276 276 276 276 276 276 276 276 276 277 278 278 278 279 280 281 281 281 282 282
271 270 269 268 266 266 266 267 267 268 269 269 271 272 273 274 275 275 276 277 277 277 277 277 277 277 277 277 277 277 276 277 278 278 278 278 278 279 280 280 281 282 282
271 270 270 270 269 268 268 268 268 268 269 270 271 273 274 274 275 276 276 277 278 278 278 278 278 279 278 278 279 278 278 279 279 279 278 278 278 279 280 280 281 282 282
274 271 271 270 270 270 269 268 269 269 270 271 272 273 274 274 274 275 277 277 278 279 279 279 279 279 279 278 279 279 280 280 280 279 278 278 279 280 281 281 281 282 282
275 273 271 271 270 269 269 269 269 269 270 271 272 273 275 275 276 276 277 277 278 279 279 280 280 279 280 279 279 280 281 281 280 279 279 279 280 281 282 282 282 282 282
275 274 272 272 272 271 270 270 270 271 271 272 273 273 275 276 277 277 277 278 278 279 279 280 280 281 281 281 280 280 281 282 281 280 280 281 280 280 282 283 283 283 282
276 275 274 273 273 273 272 272 272 273 273 274 275 276 276 277 278 278 278 278 278 279 279 280 281 281 281 282 282 282 283 283 282 281 281 281 280 281 282 283 284 284 283
277 276 275 274 274 274 274 274 274 274 275 275 276 277 278 279 279 279 279 279 279 280 280 281 281 281 281 281 282 282 283 284 283 282 282 281 281 281 281 282 283 284 284
278 276 275 274 274 275 275 275 275 275 276 276 277 278 279 280 280 280 280 281 281 280 280 281 281 281 282 282 282 283 284 284 283 282 282 282 281 281 282 283 284 284 284
279 277 276 275 275 275 275 276 275 275 276 277 278 279 280 280 281 281 281 282 281 281 281 282 282 282 282 282 283 283 284 283 283 283 283 283 283 282 281 282 283 283 284
280 279 278 277 276 275 275 275 276 276 276 278 279 280 281 281 281 281 281 281 281 281 281 282 282 283 283 283 283 282 283 283 284 284 284 283 283 283 283 283 284 284 284
281 280 280 278 277 276 275 275 276 277 277 279 280 279 280 281 281 282 281 281 280 281 281 282 283 284 284 284 284 283 283 284 284 285 284 283 282 282 282 283 284 284 284
281 280 280 279 278 277 276 277 278 279 279 280 280 280 280 281 281 281 280 280 281 281 282 283 284 284 284 284 284 283 284 285 285 286 285 284 283 283 283 284 284 284 284
281 280 280 279 278 277 277 278 279 280 281 281 281 281 281 280 280 280 279 280 280 281 282 283 284 284 283 284 284 284 283 284 285 286 286 286 285 284 284 283 284 284 285
280 280 279 279 278 277 278 279 280 281 282 281 281 281 281 281 280 280 280 279 279 280 282 283 284 284 283 284 284 285 284 284 284 285 286 286 285 284 283 283 284 284 286
279 279 279 279 279 279 280 281 281 282 281 280 280 280 281 280 281 280 280 280 279 280 281 283 284 284 284 284 284 285 285 285 285 286 285 285 285 285 284 284 284 286 287